[[{"header":{"parameterUnit":"m.s-1","parameterCategory":1,"la1":30.2991,"la2":30.254,"lo1":-89.0895,"lo2":-89.0444,"dy":0.0017,"dx":0.0017,"nx":28,"ny":28,"refTime":"2024-02-09T03:00:00:Z","depth":0,"parameterNumber":2,"parameterNumberName":"U-component_of_WINDS"},"data":[0,0,0,0,0,0,0,0,0,0,0,0,0,0,0,0,0,0,0,0,0,0,0,0,0,0,0,0,0,0,0,0,0,0,0,0,0,0,0,0,0,0,0,0,0,0,0,0,0,0,0,0,0,0,0,0,0,0,-5.7737,-5.7739,0,-5.7907,-5.7908,-5.791,-5.7883,-5.788,-5.7877,-5.7875,-5.8047,-5.8054,-5.8061,0,0,0,0,0,0,0,0,0,0,0,0,0,-5.7391,-5.7398,-5.7737,-5.7739,-5.7741,-5.7906,-5.7909,-5.7911,-5.7884,-5.788,-5.7877,-5.7873,-5.8045,-5.8053,-5.8062,0,0,0,0,0,0,0,0,0,0,0,0,0,-5.7549,-5.74,-5.7737,-5.7748,-5.775,-5.7906,-5.7909,-5.7911,-5.7884,-5.788,-5.7876,-5.7872,-5.8042,-5.8052,-5.8063,-5.8218,0,0,-5.8097,-5.8101,0,0,0,0,0,0,0,0,-5.754,-5.7562,-5.7744,-5.7747,-5.775,-5.7869,-5.785,-5.8014,-5.7885,-5.7833,-5.7874,-5.7869,-5.7991,-5.8006,-5.8048,-5.8226,-5.8234,-5.8098,-5.8104,-5.8109,-5.8112,0,0,0,0,0,0,0,-5.7529,-5.7555,-5.7804,-5.7747,-5.7751,-5.7745,-5.7762,-5.7881,-5.7935,-5.7838,-5.7836,-5.7857,-5.7992,-5.8037,-5.8051,-5.8236,-5.8097,-5.8107,-5.8114,-5.8118,-5.8553,-5.8558,0,0,0,0,0,0,-5.7515,-5.7546,-5.7799,-5.7809,-5.7633,-5.7754,-5.7774,-5.7835,-5.7933,-5.7944,-5.786,-5.7855,-5.802,-5.8039,-5.8057,-5.8245,-5.8109,-5.8119,-5.8126,-5.8548,-5.8554,-5.8559,0,0,0,0,0,0,-5.7508,-5.7538,-5.7792,-5.7677,-5.7709,-5.7765,-5.7834,-5.7841,-5.7886,-5.795,-5.796,-5.7896,-5.8018,-5.8042,-5.8179,-5.8251,-5.8124,-5.8134,-5.8542,-5.855,-5.8557,-5.8623,0,0,0,0,0,0,-5.7498,-5.7536,-5.7594,-5.7679,-5.7715,-5.791,-5.7839,-5.7848,-5.7905,-5.7899,-5.7986,-5.7997,-5.8016,-5.8163,-5.819,-5.8264,-5.8143,-5.8536,-5.8545,-5.8554,-5.8614,-5.8631,-5.8646,0,0,0,0,0,-5.7486,-5.7606,-5.7597,-5.7628,-5.779,-5.7914,-5.7935,-5.7955,-5.7911,-5.7971,-5.8013,-5.7994,-5.824,-5.8177,-5.8207,-5.8286,-5.8531,-5.8543,-5.8554,-5.8607,-5.8628,-5.8646,0,0,0,0,0,0,-5.7527,-5.7617,-5.7609,-5.7759,-5.783,-5.7909,-5.7985,-5.7977,-5.8061,-5.8052,-5.8074,-5.8094,-5.8233,-5.8274,-5.8202,-5.8442,-5.8379,-5.8397,-5.841,-5.843,-5.8446,-5.8432,-5.8152,0,0,0,0,0,-5.7554,-5.7648,-5.7721,-5.7847,-5.7883,-5.7928,-5.7983,-5.7993,-5.8067,-5.8096,-5.8148,-5.822,-5.8314,-5.8375,-5.8464,-5.8622,-5.864,-5.8691,-5.8707,-5.8719,-5.8734,-5.8821,-5.8844,-5.8596,-5.8596,-5.8596,0,0,-5.761,-5.767,-5.7728,-5.7857,-5.7912,-5.8009,-5.7953,-5.8057,-5.8129,-5.8112,-5.8244,-5.8286,-5.8368,-5.8516,-5.8583,-5.8554,-5.8807,-5.8734,-5.8743,-5.8751,-5.8835,-5.8858,-5.8879,-5.8604,-5.8602,-5.8601,0,0,-5.776,-5.7816,-5.7927,-5.7985,-5.807,-5.8101,-5.8128,-5.821,-5.8237,-5.8371,-5.836,-5.8447,-5.8608,-5.8667,-5.8718,-5.8896,-5.8882,-5.8925,-5.9007,-5.9092,-5.9111,-5.9129,-5.9191,-5.9214,-5.894,-5.894,-5.894,0,-5.7818,-5.7963,-5.7985,-5.8091,-5.8149,-5.814,-5.8253,-5.8308,-5.8418,-5.8458,-5.8424,-5.8627,-5.8682,-5.8844,-5.8888,-5.893,-5.8961,-5.8913,-5.9107,-5.9124,-5.9141,-5.9201,-5.9225,-5.8944,-5.8944,-5.8943,-5.8943,0,-5.803,-5.8131,-5.8211,-5.8319,-5.8386,-5.8495,-5.8535,-5.86,-5.8606,-5.864,-5.8777,-5.8844,-5.8947,-5.8987,-5.8993,-5.9151,-5.913,-5.9102,-5.9038,-5.9169,-5.9226,-5.9249,-5.8951,-5.8949,-5.8948,-5.8947,0,0,-5.8206,-5.8329,-5.8357,-5.8407,-5.8503,-5.8582,-5.8692,-5.8794,-5.8849,-5.8928,-5.902,-5.9159,-5.9134,-5.9192,-5.9205,-5.928,-5.9417,-5.9243,-5.9245,-5.9271,-5.9595,-5.9614,-5.964,-5.941,-5.9414,-5.9418,-5.9588,0,-5.8365,-5.8559,-5.8584,-5.8756,-5.885,-5.8845,-5.8941,-5.9011,-5.9047,-5.9133,-5.9173,-5.927,-5.923,-5.9266,-5.934,-5.9384,-5.9482,-5.9373,-5.9495,-5.9499,-5.9472,-5.967,-5.969,-5.9847,-5.961,-5.9614,-5.9617,0,-5.8574,-5.8659,-5.8841,-5.8926,-5.8967,-5.9052,-5.9149,-5.9232,-5.9312,-5.9333,-5.94,-5.9405,-5.952,-5.9455,-5.9614,-5.9539,-5.9592,-5.9622,-5.9629,-5.9638,-5.9563,-5.9683,-5.9897,-5.992,-5.9652,-5.9649,-5.9647,0,-5.8683,-5.8844,-5.8973,-5.9016,-5.9119,-5.918,-5.9226,-5.9301,-5.9362,-5.9448,-5.9487,-5.9585,-5.9638,-5.9714,-5.9745,-5.9695,-5.9903,-5.984,-5.9923,-5.9922,-5.9963,-5.996,-6.0187,-6.0002,-6.0001,-6.0001,-6.0,0,-5.8856,-5.8967,-5.9024,-5.9103,-5.9228,-5.9258,-5.9381,-5.9424,-5.9493,-5.9581,-5.9584,-5.9667,-5.9705,-5.9794,-5.982,-5.9948,-5.9972,-5.9992,-5.9997,-5.9991,-5.9988,-6.0023,-6.0012,-6.0007,-6.0006,-6.0005,-6.0003,0,-5.8997,-5.9039,-5.918,-5.9268,-5.9293,-5.9381,-5.9456,-5.9533,-5.9571,-5.9683,-5.9711,-5.9769,-5.9875,-5.9915,-6.0043,-6.0061,-6.0208,-6.0205,-6.0181,-6.0181,-6.0261,-6.0252,-6.0516,-6.0552,-6.0346,-6.0347,-6.0349,0,-5.9102,-5.9188,-5.9285,-5.9345,-5.9393,-5.949,-5.9552,-5.9586,-5.9651,-5.9751,-5.9817,-5.9922,-6.0008,-6.0177,-6.0231,-6.033,-6.0329,-6.0415,-6.0343,-6.0334,-6.0328,-6.0322,-6.033,-6.0427,-6.0429,-6.043,-6.0432,0,-5.9285,-5.9303,-5.9393,-5.9492,-5.9567,-5.9647,-5.9724,-5.9773,-5.9818,-5.9892,-6.0,-6.0067,-6.02,-6.0305,-6.0407,-6.0455,-6.0451,-6.0455,-6.0479,-6.0471,-6.0453,-6.0463,-6.0214,-6.0447,-6.0446,-6.0445,-6.0444,-6.0443,-5.9411,-5.9487,-5.9568,-5.9669,-5.9732,-5.9804,-5.9882,-5.993,-6.0021,-6.0132,-6.0147,-6.0264,-6.0345,-6.0482,-6.0535,-6.0627,-6.0604,-6.0639,-6.0647,-6.0655,-6.066,-6.0441,-6.0646,-6.0645,-6.0645,-6.0645,-6.0645,0,-5.9592,-5.9645,-5.9739,-5.9847,-5.9927,-5.992,-6.0005,-6.0073,-6.0175,-6.0251,-6.0337,-6.0463,-6.0565,-6.0629,-6.0733,-6.0794,-6.0795,-6.082,-6.0814,-6.0825,-6.0675,-6.0643,-6.0818,-6.0817,-6.0817,-6.0817,-6.0817,-6.0817,-5.9696,-5.9825,-5.9853,-6.0014,-6.0066,-6.0181,-6.0231,-6.0298,-6.0359,-6.05,-6.0585,-6.0627,-6.0699,-6.0808,-6.0903,-6.0919,-6.0956,-6.0982,-6.0997,-6.0854,-6.0836,-6.0819,-6.0789,-6.0991,-6.0991,-6.1139,-6.114,-6.1141]},{"header":{"parameterUnit":"m.s-1","parameterCategory":1,"la1":30.2991,"la2":30.254,"lo1":-89.0895,"lo2":-89.0444,"dy":0.0017,"dx":0.0017,"nx":28,"ny":28,"refTime":"2024-02-09T03:00:00:Z","depth":0,"parameterNumber":3,"parameterNumberName":"V-component_of_WINDS"},"data":[0,0,0,0,0,0,0,0,0,0,0,0,0,0,0,0,0,0,0,0,0,0,0,0,0,0,0,0,0,0,0,0,0,0,0,0,0,0,0,0,0,0,0,0,0,0,0,0,0,0,0,0,0,0,0,0,0,0,2.8423,2.8423,0,2.8493,2.8493,2.8494,2.8509,2.8508,2.8508,2.8507,2.8575,2.8577,2.858,0,0,0,0,0,0,0,0,0,0,0,0,0,2.83,2.8302,2.8423,2.8423,2.8424,2.8493,2.8493,2.8494,2.8509,2.8508,2.8507,2.8507,2.8574,2.8577,2.858,0,0,0,0,0,0,0,0,0,0,0,0,0,2.836,2.8303,2.8422,2.844,2.8442,2.8492,2.8494,2.8495,2.8509,2.8508,2.8507,2.8507,2.8574,2.8577,2.858,2.8617,0,0,2.8591,2.8592,0,0,0,0,0,0,0,0,2.8357,2.8365,2.8436,2.8439,2.8441,2.8491,2.8475,2.8536,2.8509,2.8483,2.8507,2.8506,2.8548,2.8553,2.8568,2.862,2.8623,2.8591,2.8593,2.8595,2.8596,0,0,0,0,0,0,0,2.8353,2.8362,2.845,2.8437,2.844,2.8444,2.8451,2.8487,2.8519,2.8486,2.8487,2.8495,2.8549,2.8565,2.857,2.8624,2.8591,2.8594,2.8596,2.8598,2.8714,2.8715,0,0,0,0,0,0,2.8346,2.8358,2.8448,2.8452,2.8396,2.8447,2.8455,2.8476,2.8519,2.8524,2.8496,2.8495,2.8559,2.8566,2.8572,2.862,2.8595,2.8598,2.86,2.8713,2.8714,2.8715,0,0,0,0,0,0,2.8343,2.8353,2.8445,2.8406,2.8418,2.845,2.8473,2.8478,2.8493,2.8526,2.8532,2.8506,2.8559,2.8567,2.8607,2.8623,2.8599,2.8603,2.8712,2.8713,2.8715,2.8715,0,0,0,0,0,0,2.8339,2.8352,2.8367,2.8406,2.842,2.8479,2.8474,2.848,2.85,2.85,2.8537,2.8543,2.8559,2.8602,2.861,2.8627,2.8605,2.871,2.8712,2.8714,2.8714,2.8716,2.8719,0,0,0,0,0,2.8335,2.8362,2.8367,2.8378,2.8438,2.848,2.8488,2.8506,2.8501,2.8516,2.8538,2.8542,2.862,2.8606,2.8615,2.8633,2.8709,2.8712,2.8714,2.8713,2.8716,2.8719,0,0,0,0,0,0,2.8322,2.8368,2.8374,2.8415,2.8444,2.8482,2.8501,2.8509,2.8539,2.8538,2.8559,2.8567,2.8606,2.8624,2.8607,2.8673,2.8664,2.8669,2.866,2.8663,2.8666,2.866,2.8608,0,0,0,0,0,2.8324,2.8355,2.8393,2.8426,2.844,2.8468,2.8487,2.85,2.853,2.8541,2.8566,2.8594,2.8626,2.8645,2.8676,2.8717,2.8726,2.8734,2.8737,2.8739,2.8742,2.8768,2.8772,2.8723,2.8723,2.8723,0,0,2.8328,2.8357,2.8375,2.8424,2.8448,2.8479,2.8478,2.851,2.8534,2.8546,2.8586,2.8605,2.8638,2.868,2.8699,2.8695,2.8758,2.8742,2.8743,2.8745,2.877,2.8775,2.8779,2.8724,2.8724,2.8724,0,0,2.8352,2.8377,2.8408,2.8433,2.847,2.8489,2.8497,2.8536,2.8549,2.859,2.8601,2.8629,2.8682,2.8706,2.8725,2.8763,2.8768,2.8772,2.8784,2.8809,2.8813,2.8817,2.8831,2.8836,2.8775,2.8775,2.8775,0,2.8352,2.8401,2.8423,2.8456,2.8478,2.8493,2.8525,2.8548,2.8592,2.8607,2.8603,2.8672,2.8695,2.8744,2.8753,2.8768,2.8778,2.8767,2.8811,2.8815,2.8818,2.8833,2.8838,2.8776,2.8775,2.8775,2.8775,0,2.84,2.8434,2.8455,2.85,2.8524,2.8556,2.8584,2.8606,2.8617,2.8637,2.868,2.8709,2.8747,2.8759,2.8769,2.881,2.8807,2.8807,2.8798,2.8823,2.8837,2.8843,2.8776,2.8776,2.8776,2.8776,0,0,2.8415,2.8475,2.8483,2.8505,2.8549,2.8575,2.8609,2.8648,2.8667,2.8698,2.8728,2.8774,2.8775,2.8797,2.8811,2.8832,2.8863,2.883,2.8831,2.8836,2.8912,2.8912,2.8918,2.8867,2.8868,2.8869,2.8909,0,2.8445,2.8508,2.853,2.8581,2.8614,2.863,2.866,2.869,2.8711,2.8741,2.8763,2.8796,2.8794,2.8808,2.8831,2.8854,2.8878,2.8852,2.8895,2.8896,2.8886,2.8925,2.8924,2.8961,2.8915,2.8915,2.8916,0,2.8488,2.8522,2.8577,2.8621,2.8635,2.8661,2.8701,2.8729,2.8765,2.8778,2.8805,2.8818,2.8855,2.8845,2.8897,2.8879,2.8898,2.8913,2.8915,2.8919,2.8907,2.8931,2.8972,2.8978,2.8925,2.8924,2.8923,0,2.8495,2.8555,2.8597,2.8615,2.8665,2.8684,2.8706,2.8741,2.8764,2.8798,2.8814,2.8851,2.8872,2.8901,2.8924,2.8914,2.8974,2.8966,2.8987,2.8986,2.8998,2.8997,2.9043,2.901,2.901,2.901,2.9009,0,2.8526,2.8559,2.8601,2.8626,2.8665,2.8691,2.8729,2.8751,2.8783,2.8814,2.883,2.8858,2.8887,2.8919,2.8937,2.8978,2.8987,2.8999,2.9004,2.8998,2.8997,2.9011,2.9009,2.9011,2.9011,2.901,2.901,0,2.854,2.8569,2.8616,2.8662,2.8674,2.8701,2.874,2.8765,2.8788,2.8826,2.8837,2.8872,2.8911,2.8937,2.8986,2.8999,2.9044,2.9048,2.9033,2.9035,2.9055,2.9053,2.9112,2.9122,2.9081,2.9081,2.9082,0,2.8558,2.8585,2.8634,2.8657,2.868,2.8715,2.874,2.8768,2.8793,2.8837,2.8858,2.8899,2.8933,2.8995,2.9024,2.9062,2.9067,2.9086,2.9073,2.9068,2.9069,2.9067,2.9071,2.9087,2.9088,2.9088,2.9088,0,2.8587,2.8602,2.8637,2.8679,2.8709,2.8742,2.8776,2.8793,2.8827,2.8855,2.8896,2.8923,2.8975,2.9016,2.9058,2.908,2.909,2.9093,2.91,2.9094,2.9085,2.9091,2.9039,2.9091,2.909,2.909,2.909,2.909,2.8605,2.863,2.867,2.871,2.8739,2.8771,2.8799,2.8826,2.8862,2.8908,2.8922,2.8965,2.9003,2.9061,2.9084,2.9119,2.9117,2.9127,2.9129,2.9131,2.9132,2.908,2.9126,2.9126,2.9126,2.9126,2.9126,0,2.8636,2.8664,2.87,2.8749,2.8781,2.879,2.8828,2.8854,2.8893,2.8928,2.8962,2.9011,2.9052,2.9086,2.9128,2.9149,2.9155,2.9159,2.9158,2.9163,2.9131,2.9121,2.9154,2.9154,2.9154,2.9154,2.9154,2.9154,2.8656,2.8701,2.872,2.878,2.8807,2.8851,2.8873,2.8903,2.8932,2.8986,2.9021,2.9043,2.9079,2.9124,2.9162,2.9171,2.9186,2.9189,2.9199,2.9168,2.9165,2.9162,2.9153,2.9192,2.9192,2.9229,2.9229,2.9229]}]]